Weather Service Report


219 
ASUS45 KCYS 202310
RWRWY 

WYOMING REGIONAL WEATHER ROUNDUP
NATIONAL WEATHER SERVICE CHEYENNE WY
500 PM MDT FRI JUL 20 2018

NOTE:  "FAIR" INDICATES FEW OR NO CLOUDS BELOW 12,000 FEET
WITH NO SIGNIFICANT WEATHER AND/OR OBSTRUCTIONS TO VISIBILITY.

WYZ001-210000-
YELLOWSTONE NATIONAL PARK
  
CITY           SKY/WX    TMP DP  RH WIND       PRES   REMARKS
LK YELLOWSTONE   N/A     76  31  19 W8        30.31S                  
W YELLOWSTONE  NOT AVBL                                               

$$
WYZ002>013-054>058-071-098>099-210000-
NORTHERN WYOMING
  
CITY           SKY/WX    TMP DP  RH WIND       PRES   REMARKS
JACKSON        FAIR      86  39  19 S10G16    30.17F                  
CODY           FAIR      87  47  24 NE7       30.05F                  
GREYBULL       FAIR      98  38  12 SW7       29.94F HX  93           
WORLAND        FAIR      98  33  10 NE8       29.94F HX  92           
SHERIDAN       FAIR      96  48  19 NE8       29.99S HX  92           
BUFFALO        FAIR      93  43  17 NE12      30.06S                  
GILLETTE       FAIR      91  53  27 SE7       30.02F                  
HULETT         FAIR      82  57  42 E15G22    30.08S                  
NEWCASTLE      FAIR      82  54  36 SE16G22   30.08S                  

$$
WYZ014>020-022>026-101>103-210000-
CENTRAL WYOMING
  
CITY           SKY/WX    TMP DP  RH WIND       PRES   REMARKS
BIG PINEY      FAIR      86  33  15 VRB5      30.22S                  
PINEDALE       FAIR      88  28  11 NW9G22    30.24S                  
DUBOIS         FAIR      82  27  13 NW10      30.21F                  
LANDER         FAIR      95  38  13 VRB7      30.06F HX  90           
RIVERTON       FAIR      95  35  12 VRB6      30.06F HX  90           
CASPER         FAIR      96  28   9 NE10      30.05F HX  90           
DOUGLAS        FAIR      90  55  30 E16       30.07S                  

$$
WYZ021-027>030-104>119-210000-
SOUTHERN WYOMING
  
CITY           SKY/WX    TMP DP  RH WIND       PRES   REMARKS
EVANSTON       CLOUDY    80  38  22 S10       30.28R                  
KEMMERER       FAIR      79  32  18 S8        30.29F                  
FORT BRIDGER   CLOUDY    81  33  17 S10       30.31R                  
ROCK SPRINGS   FAIR      84  32  15 W17       30.22R                  
DIXON          FAIR      92  17   6 NW8       30.21F                  
RAWLINS        FAIR      91  29  11 W10       30.20F                  
SARATOGA       FAIR      90  23   9 NW7       30.23F                  
LARAMIE        FAIR      89  27  10 MISG      30.24F                  
CHEYENNE       FAIR      91  42  18 E14       30.15F                  
TORRINGTON     FAIR      89  67  47 E17G35    30.02F HX  92           
PINE BLUFFS    FAIR      88  46  23 E12       30.10S                  

$$
  

Return to Home page


Western Regional Climate Center, wrcc@dri.edu